TimePDT,TemperatureF,Dew PointF,Humidity,Sea Level PressureIn,VisibilityMPH,Wind Direction,Wind SpeedMPH,Gust SpeedMPH,PrecipitationIn,Events,Conditions,WindDirDegrees,DateUTC
12:56 AM,55.9,39.9,55,29.97,10.0,Calm,Calm,-,N/A,,Clear,0,2013-08-06 07:56:00
1:56 AM,55.0,42.1,62,29.96,10.0,SW,4.6,-,N/A,,Clear,220,2013-08-06 08:56:00
2:56 AM,55.9,44.1,64,29.96,10.0,SSE,3.5,-,N/A,,Clear,160,2013-08-06 09:56:00
3:56 AM,54.0,44.1,69,29.97,10.0,Calm,Calm,-,N/A,,Clear,0,2013-08-06 10:56:00
4:56 AM,52.0,42.1,69,29.97,10.0,SSE,4.6,-,N/A,,Clear,150,2013-08-06 11:56:00
5:56 AM,52.0,42.1,69,29.98,10.0,Calm,Calm,-,N/A,,Clear,0,2013-08-06 12:56:00
6:56 AM,55.9,44.1,64,29.99,10.0,SSE,5.8,-,N/A,,Clear,150,2013-08-06 13:56:00
7:56 AM,63.0,45.0,52,29.99,10.0,SSE,3.5,-,N/A,,Clear,160,2013-08-06 14:56:00
8:56 AM,68.0,45.0,43,29.99,10.0,ESE,4.6,-,N/A,,Clear,120,2013-08-06 15:56:00
9:56 AM,73.0,45.0,37,29.98,10.0,Calm,Calm,-,N/A,,Clear,0,2013-08-06 16:56:00
10:56 AM,80.1,44.1,28,29.97,10.0,Calm,Calm,-,N/A,,Clear,0,2013-08-06 17:56:00
11:56 AM,84.0,41.0,22,29.96,10.0,Calm,Calm,-,N/A,,Clear,0,2013-08-06 18:56:00
12:56 PM,87.1,39.9,19,29.94,10.0,North,5.8,-,N/A,,Clear,10,2013-08-06 19:56:00
1:56 PM,89.1,36.0,15,29.93,10.0,NNE,4.6,-,N/A,,Clear,20,2013-08-06 20:56:00
2:56 PM,91.0,34.0,13,29.90,10.0,NNW,9.2,18.4,N/A,,Clear,330,2013-08-06 21:56:00
3:56 PM,93.0,32.0,12,29.88,10.0,NNW,15.0,20.7,N/A,,Clear,340,2013-08-06 22:56:00
4:56 PM,91.9,32.0,12,29.87,10.0,NNW,15.0,24.2,N/A,,Clear,340,2013-08-06 23:56:00
5:56 PM,91.9,34.0,13,29.87,10.0,North,12.7,20.7,N/A,,Clear,350,2013-08-07 00:56:00
6:56 PM,89.1,34.0,14,29.87,10.0,NW,11.5,-,N/A,,Clear,320,2013-08-07 01:56:00
7:56 PM,84.9,33.1,16,29.89,10.0,NW,13.8,-,N/A,,Clear,320,2013-08-07 02:56:00
8:56 PM,81.0,37.9,21,29.90,10.0,NW,6.9,-,N/A,,Clear,310,2013-08-07 03:56:00
9:56 PM,78.1,42.1,28,29.91,10.0,NW,8.1,-,N/A,,Clear,310,2013-08-07 04:56:00
10:56 PM,71.1,43.0,36,29.91,10.0,NNW,4.6,-,N/A,,Clear,340,2013-08-07 05:56:00
11:56 PM,61.0,39.0,44,29.93,10.0,SE,3.5,-,N/A,,Clear,140,2013-08-07 06:56:00